This is the latest recevied weather packets stored in our database for station/object WE8L. If no packets are shown the sender has not sent any weather packets the latest 1 day(s).
| Time | Temp. | Humidity | Pressure | Rain* | Wind** | Luminosity | Snow |
|---|---|---|---|---|---|---|---|
| 1778026937 | 15.56° C | 98% | 1009.3 hPa | 1.78 mm | 0 m/s | 0 W/m² | - |
| 1778026633 | 15.56° C | 98% | 1009.3 hPa | 0 mm | 0 m/s | 1 W/m² | - |
| 1778026331 | 15.56° C | 98% | 1009.1 hPa | 0 mm | 0 m/s | 1 W/m² | - |
| 1778026028 | 15.56° C | 98% | 1009.3 hPa | 1.27 mm | 0 m/s | 1 W/m² | - |
| 1778025726 | 15.56° C | 98% | 1008.9 hPa | 1.27 mm | 0 m/s | 2 W/m² | - |
| 1778025423 | 15.56° C | 97% | 1009.2 hPa | 0 mm | 0 m/s | 2 W/m² | - |
| 1778025120 | 15.56° C | 97% | 1009.3 hPa | 0 mm | 0 m/s | 2 W/m² | - |
| 1778024817 | 15.56° C | 97% | 1009.5 hPa | 0 mm | 0 m/s | 2 W/m² | - |
| 1778024514 | 15.56° C | 97% | 1009.2 hPa | 0 mm | 0 m/s | 3 W/m² | - |
| 1778024210 | 15.56° C | 97% | 1009.2 hPa | 1.78 mm | 0 m/s | 3 W/m² | - |
| 1778023908 | 15.56° C | 97% | 1009.5 hPa | 1.78 mm | 0 m/s | 5 W/m² | - |
| 1778023606 | 16.11° C | 97% | 1009.5 hPa | 0 mm | 0 m/s | 5 W/m² | - |
| 1778023303 | 15.56° C | 97% | 1009.7 hPa | 0 mm | 0 m/s | 6 W/m² | - |
| 1778023000 | 16.11° C | 97% | 1009.6 hPa | 0 mm | 0 m/s | 5 W/m² | - |
| 1778022699 | 16.11° C | 97% | 1009.5 hPa | 0 mm | 0 m/s | 5 W/m² | - |
| 1778022396 | 16.11° C | 97% | 1009.7 hPa | 0 mm | 0 m/s | 7 W/m² | - |
| 1778022092 | 16.11° C | 97% | 1009.8 hPa | 0 mm | 0 m/s | 9 W/m² | - |
| 1778021789 | 16.11° C | 97% | 1009.6 hPa | 0 mm | 0 m/s | 11 W/m² | - |
| 1778021485 | 16.11° C | 97% | 1009.7 hPa | 0 mm | 0.45 m/s, 213° | 12 W/m² | - |
| 1778021182 | 16.11° C | 97% | 1009.7 hPa | 0 mm | 0 m/s | 15 W/m² | - |
| 1778020879 | 16.11° C | 97% | 1009.7 hPa | 0 mm | 0 m/s | 19 W/m² | - |
| 1778020577 | 16.11° C | 97% | 1009.8 hPa | 0 mm | 0 m/s | 25 W/m² | - |
| 1778020273 | 16.11° C | 97% | 1010 hPa | 0 mm | 0.45 m/s, 180° | 31 W/m² | - |
| 1778019969 | 16.11° C | 97% | 1009.9 hPa | 0 mm | 0 m/s | 27 W/m² | - |
| 1778019665 | 16.11° C | 97% | 1010 hPa | 1.78 mm | 0.45 m/s, 185° | 34 W/m² | - |
* Rain latest hour (hover to see other rain measurements)
** Current wind speed in m/s (hover to see current wind gust speed)